NKS122 KBNA-KATL

Flight info

Callsign NKS122
Flight time N/A
Altitude 25000
Route TIPPN4 DENST CHPPR CHPPR1
Aircraft A21N/M-SDE2E3FGHIRWXY/LB1

Departure

Time 2026-05-03 23:33
Airport Nashville International Airport (KBNA)

Arrival

Time N/A
Airport Hartsfield Jackson Atlanta International Airport (KATL)
Time Latitude Longitude Altitude Speed Heading
2026-05-03 23:20 36.13505 -86.67264 574 ft 0 kts 194°
2026-05-03 23:30 36.13496 -86.67277 574 ft 9 kts 236°
2026-05-03 23:30 36.13511 -86.67418 568 ft 24 kts 287°
2026-05-03 23:30 36.13561 -86.67614 575 ft 22 kts 287°
2026-05-03 23:31 36.13595 -86.67709 578 ft 7 kts 324°
2026-05-03 23:31 36.13672 -86.67711 571 ft 12 kts
2026-05-03 23:31 36.13736 -86.67736 575 ft 9 kts 310°
2026-05-03 23:31 36.13745 -86.67759 575 ft 0 kts 291°
2026-05-03 23:32 36.13749 -86.67831 568 ft 13 kts 255°
2026-05-03 23:32 36.13696 -86.67886 570 ft 10 kts 202°
2026-05-03 23:32 36.13458 -86.67988 573 ft 74 kts 196°
2026-05-03 23:32 36.12704 -86.68284 586 ft 153 kts 198°
2026-05-03 23:33 36.11580 -86.68720 1020 ft 180 kts 198°
2026-05-03 23:33 36.10328 -86.69199 1550 ft 202 kts 198°
2026-05-03 23:33 36.08832 -86.69489 1870 ft 232 kts 172°
2026-05-03 23:33 36.07343 -86.68602 2405 ft 252 kts 142°
2026-05-03 23:34 36.05947 -86.67242 3263 ft 258 kts 140°
2026-05-03 23:34 36.04577 -86.65782 4181 ft 262 kts 140°
2026-05-03 23:34 36.03158 -86.64332 5103 ft 266 kts 142°
2026-05-03 23:34 36.01658 -86.62947 6020 ft 270 kts 145°
2026-05-03 23:35 36.00091 -86.61639 6951 ft 274 kts 147°
2026-05-03 23:35 35.98463 -86.60382 7876 ft 278 kts 149°
2026-05-03 23:35 35.96795 -86.59152 8799 ft 281 kts 150°
2026-05-03 23:35 35.95092 -86.57923 9724 ft 285 kts 150°
2026-05-03 23:36 35.93386 -86.56698 10625 ft 289 kts 150°
2026-05-03 23:36 35.91635 -86.55440 11538 ft 293 kts 150°
2026-05-03 23:36 35.89861 -86.54158 12436 ft 297 kts 150°
2026-05-03 23:36 35.88068 -86.52858 13322 ft 301 kts 150°
2026-05-03 23:37 35.86247 -86.51533 14193 ft 306 kts 149°
2026-05-03 23:37 35.84403 -86.50202 15071 ft 309 kts 151°
2026-05-03 23:37 35.82524 -86.48870 15894 ft 313 kts 150°
2026-05-03 23:37 35.80629 -86.47493 16737 ft 318 kts 149°
2026-05-03 23:38 35.78715 -86.46087 17546 ft 322 kts 149°
2026-05-03 23:38 35.76779 -86.44663 18322 ft 326 kts 149°
2026-05-03 23:38 35.74818 -86.43225 19068 ft 330 kts 149°
2026-05-03 23:38 35.72830 -86.41773 19812 ft 334 kts 149°
2026-05-03 23:39 35.70842 -86.40326 20508 ft 338 kts 149°
2026-05-03 23:39 35.68805 -86.38847 21204 ft 342 kts 149°
2026-05-03 23:39 35.66740 -86.37350 21889 ft 346 kts 150°
2026-05-03 23:39 35.64653 -86.35839 22555 ft 349 kts 150°
2026-05-03 23:40 35.62546 -86.34314 23203 ft 353 kts 150°
2026-05-03 23:40 35.60399 -86.32762 23653 ft 364 kts 150°
2026-05-03 23:40 35.58177 -86.31174 24039 ft 374 kts 151°
2026-05-03 23:40 35.55852 -86.29638 24422 ft 384 kts 152°
2026-05-03 23:41 35.53460 -86.28086 24807 ft 393 kts 152°
2026-05-03 23:41 35.51046 -86.26483 24980 ft 407 kts 151°
2026-05-03 23:41 35.48526 -86.24750 25003 ft 423 kts 150°
2026-05-03 23:41 35.45925 -86.22907 25008 ft 439 kts 150°
2026-05-03 23:42 35.43250 -86.20976 24998 ft 453 kts 149°
2026-05-03 23:42 35.40469 -86.18953 23033 ft 493 kts 149°